Location: Detroit
(42.3310°N, 83.0460°W)
Time: 06:09:53
(UTC-04:00)

Envisat - Visible Passes

Search period start: 20 April 2024 00:00
Search period end: 30 April 2024 00:00
Orbit: 762 x 764 km, 98.3° (Epoch: 19 April)

Date Brightness Start Highest point End Pass type
(mag) Time Alt. Az. Time Alt. Az. Time Alt. Az.
20 Apr 5.7 03:24:53 10° ENE 03:25:46 10° E 03:26:39 10° E visible
20 Apr 2.9 05:00:19 10° NNE 05:05:25 89° WNW 05:09:13 18° SSW visible
21 Apr 4.1 04:23:14 10° NNE 04:28:01 41° E 04:31:33 17° SSE visible
21 Apr 4.2 06:02:39 10° NNW 06:06:44 25° WNW 06:10:49 10° WSW visible
22 Apr 5.2 03:46:54 10° NE 03:50:24 19° E 03:53:52 10° SE visible
22 Apr 3.2 05:24:45 10° N 05:29:41 53° WNW 05:34:02 13° SW visible
23 Apr 3.2 04:47:19 10° NNE 04:52:24 70° ESE 04:56:22 17° S visible
24 Apr 4.5 04:10:26 10° NNE 04:14:56 31° E 04:18:41 14° SSE visible
24 Apr 3.9 05:49:23 10° N 05:53:51 32° WNW 05:58:18 10° SW visible
25 Apr 5.5 03:34:38 10° ENE 03:37:15 14° E 03:39:51 10° ESE visible
25 Apr 3.0 05:11:39 10° N 05:16:43 70° WNW 05:21:10 13° SSW visible
26 Apr 3.6 04:34:23 10° NNE 04:39:22 53° E 04:43:28 15° S visible
27 Apr 4.9 03:57:45 10° NE 04:01:49 24° E 04:05:47 10° SSE visible
27 Apr 3.5 05:36:10 10° N 05:40:55 41° WNW 05:45:39 10° SW visible
28 Apr 5.8 03:23:35 10° E 03:24:03 10° E 03:24:31 10° E visible
28 Apr 3.0 04:58:36 10° NNE 05:03:42 90° E 05:08:16 13° SSW visible
29 Apr 4.1 04:21:31 10° NNE 04:26:18 40° E 04:30:34 12° SSE visible
